SCP
0 0 0 0 0 0 0 0 0 0 0 0 0 0 0 0 0 0 0 0 0 0 0 0 0 0 0 0 0 0 0 0 0 0 0 0 0 0 0 0 0 0 0
0 0 0 0 0 0 0 0 0 0 0 0 0 0 0 0 0 0 0 0 0 0 0 0 0 0 0 0 0 0 0 0 0 0 0 0 0 0 0 0 0 0 0
0 0 0 0 0 0 0 0 0 0 0 0 0 0 0 0 0 0 0 0 0 0 0 0 0 0 0 0 0 0 0 0 0 0 0 0 0 0 0 0 0 0 0
0 0 0 0 0 0 0 0 0 0 0 0 0 0 0 0 0 0 0 0 0 0 0 0 0 0 0 0 0 0 0 0 0 0 0 0 0 0 0 0 0 0 0
0 0 0 0 0 0 0 0 0 0 0 0 0 0 0 0 0 0 0 0 0 0 0 0 0 0 0 0 0 0 0 0 0 0 0 0 0 0 0 0 0 0 0
0 0 0 0 0 0 0 0 0 0 0 0 0 0 0 0 0 0 0 0 0 0 0 0 0 0 0 0 0 0 0 0 0 0 0 0 0 0 0 0 0 0 0
0 0 0 0 0 0 0 0 0 0 0 0 0 0 0 0 0 0 0 0 0 0 0 0 0 0 0 0 0 0 0 0 0 0 0 0 0 0 0 0 0 0 0
0 0 0 0 0 0 0 0 0 0 0 0 0 0 0 0 0 0 0 0 0 0 0 0 0 0 0 0 0 0 0 0 0 0 0 0 0 0 0 0 0 0 0
0 0 0 0 0 0 0 0 0 0 0 0 0 0 0 0 0 0 0 0 0 0 0 0 0 0 0 0 0 0 0 0 0 0 0 0 0 0 0 0 0 0 0
0 0 0 0 0 0 0 0 0 0 0 0 0 0 0 0 0 0 0 0 0 0 0 0 0 0 0 0 0 0 0 0 0 0 0 0 0 0 0 0 0 0 0
0 0 0 0 0 0 0 0 0 0 0 0 0 0 0 0 0 0 0 0 0 0 0 0 0 0 0 0 0 0 0 0 0 0 0 0 0 0 0 0 0 0 0
0 0 0 0 0 0 0 0 0 0 0 0 0 0 0 0 0 0 0 0 0 0 0 0 0 0 0 0 0 0 0 0 0 0 0 0 0 0 0 0 0 0 0
0 0 0 0 0 0 0 0 0 0 0 0 0 0 0 0 0 0 0 0 0 0 0 0 0 0 0 0 0 0 0 0 0 0 0 0 0 0 0 0 0 0 0
0 0 1 1 1 0 0 1 1 1 0 0 0 0 0 0 0 0 0 0 0 0 0 0 0 0 0 0 0 0 0 0 0 0 0 0 0 0 0 0 0 0 0
1 1 1 1 1 1 1 1 1 1 1 1 1 0 0 0 0 0 0 0 0 0 0 0 0 0 0 0 0 0 0 0 0 0 0 0 0 0 0 0 0 0 0
1 1 1 1 1 1 1 1 1 1 1 1 1 1 0 0 0 0 0 0 0 0 0 0 0 0 0 0 0 0 0 0 0 0 0 0 0 0 0 0 0 0 0
1 1 1 1 1 1 1 1 1 1 1 1 1 1 0 0 0 0 0 0 0 0 0 0 0 0 0 0 0 0 0 0 0 0 0 0 0 0 0 0 0 0 0
1 1 1 1 1 1 1 1 1 1 1 1 1 1 0 0 0 0 0 0 0 0 0 0 0 0 0 0 0 0 0 0 0 0 0 0 0 0 0 0 0 0 0
1 1 1 1 1 1 1 1 1 1 1 1 1 1 1 0 0 0 0 0 0 0 0 0 0 0 0 0 0 0 0 0 0 0 0 0 0 0 0 0 0 0 0
1 1 1 1 1 1 1 1 1 1 1 1 1 1 1 0 0 0 0 0 0 0 0 0 0 0 0 0 0 0 0 0 0 0 0 0 0 0 0 0 0 0 0
1 1 1 1 1 1 1 1 1 1 1 1 1 1 1 0 0 0 0 0 0 0 0 0 0 0 0 0 0 0 0 0 0 0 0 0 0 0 0 0 0 0 0
1 1 1 1 1 1 0 0 0 1 1 1 1 1 1 0 0 0 0 0 0 0 0 0 0 0 0 0 0 0 0 0 0 0 0 0 0 0 0 0 0 0 0
1 1 1 1 1 1 0 0 0 0 1 1 1 1 1 0 0 0 0 0 0 0 0 0 0 0 0 0 0 0 0 0 0 0 0 0 0 0 0 0 0 0 0
1 1 1 1 1 1 0 0 0 0 1 1 1 1 1 1 0 0 0 0 0 0 0 0 0 0 0 0 0 0 0 0 0 0 0 0 0 0 0 0 0 0 0
1 1 1 1 1 1 0 0 0 0 1 1 1 1 1 0 0 0 0 0 0 0 0 0 0 0 0 0 0 0 0 0 0 0 0 0 0 0 0 0 0 0 0
1 1 1 1 1 1 0 0 0 0 1 1 1 1 0 0 0 0 0 0 1 1 0 0 0 0 0 0 0 0 0 0 0 0 0 0 0 0 0 0 0 0 0
Wind_Speed
2 2 1 1 1 1 2 2 2 2 2 2 2 1 1 1 1 1 3 7 5 5 5 6 6 7 7 6 6 6 8 8 8 8 8 8 8 9 9 9 8 8 8
1 1 2 2 1 1 1 1 2 2 2 1 1 1 1 1 0 1 1 5 7 5 4 5 5 5 5 5 5 5 6 8 7 7 8 8 8 9 9 9 9 8 8
1 1 1 2 1 1 2 2 2 1 2 2 1 0 0 0 0 0 0 0 3 6 6 5 5 5 5 5 5 5 5 6 6 7 7 8 9 9 9 9 10 9 8
2 2 1 1 1 1 2 2 1 1 1 1 1 0 0 0 0 1 1 1 0 1 5 6 5 4 5 5 5 5 4 5 6 6 7 8 8 9 9 10 10 9 9
2 2 1 1 1 1 1 1 2 1 1 1 1 1 1 0 0 0 0 0 0 1 1 5 5 5 5 5 4 4 4 5 5 5 6 7 8 9 10 10 10 9 9
2 2 2 2 2 2 1 1 2 1 1 1 1 1 0 0 0 0 1 0 1 1 1 1 2 4 6 5 4 4 4 4 4 5 5 6 7 8 9 10 10 10 10
1 2 2 2 2 2 2 2 2 3 2 2 2 1 1 1 0 1 0 0 1 1 1 0 1 1 2 6 5 3 3 4 4 4 4 4 6 7 8 8 9 10 10
2 2 2 2 2 2 2 2 2 2 1 2 2 2 2 2 2 1 1 1 0 0 0 0 0 1 1 1 3 3 2 3 4 4 4 3 4 5 6 8 9 9 10
1 1 1 1 1 2 2 2 2 3 2 2 1 2 2 0 0 2 1 1 0 1 1 1 1 1 2 1 1 3 2 1 2 4 4 4 4 5 6 7 9 9 9
1 1 1 1 1 1 1 2 2 2 3 2 2 1 1 2 2 1 1 1 1 1 1 2 1 0 1 1 1 1 1 1 2 3 3 3 4 4 5 6 8 9 10
1 1 1 2 2 1 1 1 1 2 2 2 1 1 2 1 3 2 1 1 2 1 1 2 1 1 1 1 1 1 2 1 1 2 3 4 4 4 4 5 7 8 9
2 2 2 2 2 2 2 2 2 2 2 2 2 2 2 1 2 2 3 3 2 1 1 1 2 1 2 2 1 3 2 2 2 2 3 3 4 4 4 4 5 6 7
2 2 2 2 2 2 2 2 3 2 2 2 3 2 2 2 2 2 3 3 3 2 2 2 1 2 1 1 1 2 3 2 2 2 2 2 3 3 3 3 4 5 5
1 1 2 3 3 3 3 3 3 3 3 3 3 3 3 2 2 2 3 3 3 3 2 2 1 1 1 1 2 3 2 3 2 2 2 2 2 2 2 2 3 3 4
2 2 3 3 4 3 3 3 2 3 3 3 3 3 3 2 2 2 3 3 4 4 3 1 1 0 1 0 1 2 1 3 3 3 2 2 2 2 2 2 2 3 3
2 3 3 3 3 4 4 4 3 3 3 3 3 3 3 2 2 2 3 3 3 4 3 1 1 1 1 2 2 2 2 5 5 4 3 3 3 3 3 3 4 4 4
3 4 4 3 3 4 4 3 3 3 4 4 3 3 3 3 2 2 2 2 2 3 3 2 1 1 2 3 1 3 3 4 3 6 4 3 3 3 3 4 4 4 5
4 4 4 4 4 3 3 4 4 4 4 4 4 3 4 3 3 3 3 3 3 3 4 3 2 2 3 3 2 4 3 3 3 6 6 5 4 4 4 4 5 5 5
4 4 4 4 4 4 4 4 4 4 4 4 4 4 4 4 4 3 4 4 3 3 3 3 3 2 3 2 2 4 3 3 4 4 7 7 6 6 6 6 6 5 5
5 5 5 4 4 4 4 4 4 4 4 4 4 5 5 5 5 4 4 5 4 4 3 4 3 3 3 2 3 3 3 2 4 3 2 3 6 8 8 7 6 6 5
5 5 5 5 5 5 4 4 5 5 5 5 5 5 5 4 4 4 4 4 4 4 4 4 4 3 3 2 3 3 3 3 3 3 3 3 4 4 6 7 7 5 6
5 5 5 5 5 4 1 1 5 5 5 5 5 5 5 7 6 6 5 4 4 5 5 4 4 4 3 3 3 4 4 4 4 2 4 4 3 3 3 2 3 4 5
5 5 6 6 6 4 3 4 5 7 6 5 5 5 5 4 6 6 6 8 7 7 6 6 6 5 4 3 4 5 4 5 4 3 4 5 4 3 3 1 5 4 4
5 5 5 6 5 5 5 6 6 8 7 6 6 6 6 4 4 4 6 7 7 7 7 7 6 5 5 3 4 6 5 5 5 4 4 5 4 4 3 2 6 6 5
5 5 5 5 5 4 5 6 6 6 6 7 6 6 6 5 2 3 6 7 7 6 6 6 4 4 3 3 4 5 5 5 5 3 3 4 4 4 4 3 3 7 6
5 5 5 5 6 5 5 6 7 6 6 5 5 5 5 5 3 4 6 7 7 6 5 5 6 6 7 6 7 7 6 6 5 4 2 3 4 4 4 2 1 2 4
Wind_Direction
158 163 150 170 179 165 176 186 173 174 190 189 193 201 235 262 238 199 132 135 156 174 189 194 196 206 211 210 212 209 210 209 205 198 200 205 208 210 212 209 205 205 205
137 164 167 170 178 176 177 204 183 186 193 158 173 199 230 219 160 203 169 143 153 168 180 190 199 202 206 206 209 210 208 206 205 201 202 207 213 216 215 214 209 206 205
156 189 179 176 173 167 172 186 179 177 177 162 146 112 240 291 77 151 237 212 157 163 174 189 200 205 204 205 206 202 201 201 203 208 206 206 211 216 217 215 211 207 207
187 206 184 169 163 186 182 169 185 153 137 170 161 186 157 112 255 229 195 176 204 169 167 178 194 199 206 212 210 207 208 208 207 209 213 213 214 215 216 214 211 208 207
190 198 188 149 198 197 188 195 140 180 169 191 187 177 212 180 266 277 64 24 220 242 206 157 175 192 205 211 210 212 214 216 217 217 221 224 226 220 214 210 209 208 209
194 218 185 179 204 192 185 187 173 188 208 213 228 150 238 229 258 1 279 182 197 248 253 211 188 184 187 196 204 215 218 210 210 220 228 232 228 222 214 207 207 209 212
200 226 225 180 204 190 202 197 197 186 206 203 211 200 185 192 164 181 253 332 35 14 16 276 257 259 180 181 188 209 226 222 219 222 228 235 227 220 210 208 209 210 213
238 212 223 225 200 196 199 207 212 229 212 208 248 239 210 176 183 162 166 185 349 333 344 304 290 278 282 210 140 174 220 236 231 229 226 232 220 216 215 210 209 212 213
241 274 229 235 226 228 200 210 220 230 231 212 242 278 279 270 185 150 178 168 301 313 296 305 253 265 268 266 195 156 174 226 242 241 241 240 235 230 227 216 214 215 214
241 232 222 210 233 238 213 221 198 242 242 228 184 212 284 322 289 225 185 173 203 244 294 291 288 220 250 248 164 87 138 208 237 252 259 251 242 235 234 226 222 221 215
221 232 213 211 213 228 229 265 234 251 248 259 247 201 195 217 253 264 267 247 228 225 243 258 269 255 234 232 224 134 158 206 236 256 258 259 257 249 240 230 227 224 218
196 202 205 217 220 223 203 216 231 222 246 266 276 272 250 246 248 251 264 266 269 249 234 242 258 253 229 220 213 126 176 211 235 253 256 264 265 262 254 245 238 232 225
198 185 208 217 227 220 220 220 214 239 234 238 248 253 258 261 274 270 275 284 287 274 245 234 231 245 239 227 144 152 177 188 225 253 263 272 270 259 256 248 243 233 223
230 182 211 210 220 228 229 220 226 215 219 233 241 246 252 252 257 255 266 274 276 268 250 256 242 253 277 255 81 225 172 159 211 245 254 266 274 262 263 258 244 238 233
223 201 209 209 214 215 223 225 230 231 221 231 231 223 241 241 245 253 256 261 273 283 280 240 252 224 256 272 133 239 238 145 193 220 231 248 266 263 249 247 234 230 227
245 231 224 223 221 215 217 225 223 224 231 230 235 242 248 244 233 236 246 252 261 279 293 308 257 272 304 268 165 246 237 163 191 199 210 225 239 249 237 233 234 231 225
234 233 233 233 231 225 224 228 238 228 232 232 231 227 237 257 254 244 239 244 244 251 261 276 270 221 236 267 234 250 238 236 189 181 204 222 239 251 246 237 234 232 231
234 229 232 234 234 228 229 230 235 232 233 231 233 237 240 234 240 251 245 239 236 238 254 261 258 240 231 242 243 252 248 242 241 165 188 211 227 236 239 240 238 235 235
230 228 229 234 239 235 232 238 238 240 241 239 238 237 238 241 241 236 243 240 237 231 239 251 251 255 245 240 251 253 257 264 259 178 187 202 215 222 229 233 235 232 231
225 226 230 233 236 236 236 237 239 241 245 245 242 242 240 239 237 236 234 238 243 244 232 244 243 239 240 231 252 261 255 249 271 259 230 222 203 210 219 223 226 226 229
230 225 230 235 238 235 235 235 244 242 246 248 243 241 240 241 252 253 260 246 241 243 241 242 245 247 242 237 250 259 269 265 260 266 267 246 220 224 211 209 213 219 227
233 233 232 234 238 244 127 247 266 255 249 250 249 244 233 222 219 218 235 251 257 247 253 257 253 256 254 252 262 266 268 268 270 258 280 274 260 256 248 232 162 187 214
227 233 238 237 238 232 190 218 243 259 257 258 257 258 259 230 223 229 211 215 229 239 246 256 262 267 262 255 260 258 262 275 285 288 275 277 270 268 267 163 146 179 203
232 234 238 240 240 226 193 212 230 243 253 254 252 250 253 251 240 241 238 231 233 226 225 236 255 263 265 268 256 262 266 258 256 253 260 275 276 277 284 247 157 178 200
237 236 236 238 240 232 191 202 224 242 241 246 247 244 245 242 195 225 242 240 239 232 215 216 243 256 275 265 267 263 253 254 259 249 237 268 280 284 275 260 178 178 196
238 240 238 240 241 242 199 198 221 245 242 241 234 231 219 234 208 210 241 245 242 242 243 213 215 221 230 227 225 246 259 262 266 263 215 259 272 282 278 255 250 206 210